Home   Weather   Hollywood   Past weeks

Flag for USA Past Weather in Hollywood, Florida, USA — Yesterday and Last 2 Weeks

Now
77 °F

Passing clouds.


Feels Like: 79 °F
Forecast: 66 / 82 °F
Wind: 6 mph from South

Location: Fort Lauderdale / Hollywood International Airport

Current Time: Jan 21, 2017 at 10:50:38 am

Latest Report: Jan 21, 2017 at 9:53 am


Visibility: 10 mi

Pressure: 29.98 "Hg

Humidity: 71%

Dew Point: 67 °F

Location of HollywoodLocation

Past Weather in Hollywood — Graph

°F

Hollywood Temperature Yesterday

Maximum temperature yesterday: 81 °F (at 12:53 pm)
Minimum temperature yesterday: 63 °F (at 6:53 am)
Average temperature yesterday: 72 °F

High & Low Weather Summary for the Past Weeks

 TemperatureHumidityPressure
High85 °F (Jan 7, 11:53 am)97% (Jan 7, 5:53 am)30.49 "Hg (Jan 7, 5:53 am)
Low48 °F (Jan 8, 2:53 am)40% (Jan 10, 10:53 am)29.93 "Hg (Jan 20, 2:53 pm)
Average71 °F70%30.20 "Hg
* Reported Jan 6 8:53 am — Jan 21 8:53 am, Hollywood, Weather by CustomWeather, © 2017

Note: Actual official high and low records may vary slightly from our data, if they occured in-between our weather recording intervals... More about our weather records

Advertising

Hollywood Weather History for the Previous 24 Hours

Scroll right to see more
 ConditionsComfort  
Time TempWeatherWind HumidityBarometerVisibility
8:53 am
Sat, Jan 21
72 °FPassing clouds.No wind81%29.97 "Hg10 mi
7:53 am67 °FPassing clouds.No wind93%29.98 "Hg10 mi
6:53 am65 °FPassing clouds.No wind94%29.98 "Hg10 mi
5:53 am64 °FPassing clouds.No wind94%29.98 "Hg10 mi
4:53 am65 °FPassing clouds.No wind94%29.97 "Hg10 mi
3:53 am66 °FPassing clouds.No wind90%29.98 "Hg10 mi
2:53 am65 °FPassing clouds.No wind91%29.98 "Hg10 mi
1:53 am67 °FPassing clouds.No wind87%29.99 "Hg10 mi
12:53 am69 °FPassing clouds.No wind81%29.99 "Hg10 mi
11:53 pm
Fri, Jan 20
70 °FClear.3 mph79%30.00 "Hg10 mi
10:53 pm72 °FPassing clouds.5 mph73%30.00 "Hg10 mi
9:53 pm73 °FPassing clouds.6 mph71%30.00 "Hg10 mi
8:53 pm73 °FPassing clouds.7 mph74%29.99 "Hg10 mi
7:53 pm75 °FPassing clouds.6 mph69%29.98 "Hg10 mi
6:53 pm76 °FPassing clouds.7 mph69%29.96 "Hg10 mi
5:53 pm76 °FPartly sunny.10 mph69%29.96 "Hg10 mi
4:53 pm78 °FPartly sunny.9 mph62%29.94 "Hg10 mi
3:53 pm80 °FBroken clouds.12 mph58%29.93 "Hg10 mi
2:53 pm79 °FPartly sunny.14 mph60%29.93 "Hg10 mi
1:53 pm80 °FBroken clouds.6 mph51%29.94 "Hg10 mi
12:53 pm81 °FPartly sunny.8 mph51%29.97 "Hg10 mi
11:53 am79 °FPassing clouds.9 mph52%30.00 "Hg10 mi
10:53 am77 °FPassing clouds.7 mph62%30.02 "Hg10 mi
Weather by CustomWeather, © 2017

See weather overviewHow to use our weather pages